Year,Month,Day,Hour,Minute,Value (Times are PST for temperature in C)
2012,08,11,00,00,15.70
2012,08,11,00,01,15.70
2012,08,11,00,02,15.70
2012,08,11,00,03,15.60
2012,08,11,00,04,15.60
2012,08,11,00,05,15.50
2012,08,11,00,06,15.50
2012,08,11,00,07,15.50
2012,08,11,00,08,15.40
2012,08,11,00,09,15.40
2012,08,11,00,10,15.30
2012,08,11,00,11,15.30
2012,08,11,00,12,15.30
2012,08,11,00,13,15.20
2012,08,11,00,14,15.10
2012,08,11,00,15,15.00
2012,08,11,00,16,15.00
2012,08,11,00,17,15.00
2012,08,11,00,18,14.90
2012,08,11,00,19,14.90
2012,08,11,00,20,14.80
2012,08,11,00,21,14.80
2012,08,11,00,22,14.80
2012,08,11,00,23,14.70
2012,08,11,00,24,14.70
2012,08,11,00,25,14.70
2012,08,11,00,26,14.60
2012,08,11,00,27,14.60
2012,08,11,00,28,14.60
2012,08,11,00,29,14.50
2012,08,11,00,30,14.50
2012,08,11,00,31,14.40
2012,08,11,00,32,14.40
2012,08,11,00,33,14.30
2012,08,11,00,34,14.30
2012,08,11,00,35,14.20
2012,08,11,00,36,14.20
2012,08,11,00,37,14.20
2012,08,11,00,38,14.10
2012,08,11,00,39,14.10
2012,08,11,00,40,14.10
2012,08,11,00,41,14.00
2012,08,11,00,42,14.00
2012,08,11,00,43,13.90
2012,08,11,00,44,13.90
2012,08,11,00,45,13.80
2012,08,11,00,46,13.80
2012,08,11,00,47,13.80
2012,08,11,00,48,13.80
2012,08,11,00,49,13.80
2012,08,11,00,50,13.70
2012,08,11,00,51,13.70
2012,08,11,00,52,13.70
2012,08,11,00,53,13.60
2012,08,11,00,54,13.60
2012,08,11,00,55,13.50
2012,08,11,00,56,13.50
2012,08,11,00,57,13.50
2012,08,11,00,58,13.40
2012,08,11,00,59,13.40
2012,08,11,01,00,13.40
2012,08,11,01,01,13.40
2012,08,11,01,02,13.40
2012,08,11,01,03,13.40
2012,08,11,01,04,13.30
2012,08,11,01,05,13.30
2012,08,11,01,06,13.30
2012,08,11,01,07,13.30
2012,08,11,01,08,13.30
2012,08,11,01,09,13.30
2012,08,11,01,10,13.30
2012,08,11,01,11,13.20
2012,08,11,01,12,13.20
2012,08,11,01,13,13.20
2012,08,11,01,14,13.20
2012,08,11,01,15,13.20
2012,08,11,01,16,13.20
2012,08,11,01,17,13.20
2012,08,11,01,18,13.20
2012,08,11,01,19,13.20
2012,08,11,01,20,13.10
2012,08,11,01,21,13.10
2012,08,11,01,22,13.10
2012,08,11,01,23,13.10
2012,08,11,01,24,13.10
2012,08,11,01,25,13.10
2012,08,11,01,26,13.10
2012,08,11,01,27,13.10
2012,08,11,01,28,13.00
2012,08,11,01,29,13.00
2012,08,11,01,30,13.00
2012,08,11,01,31,13.00
2012,08,11,01,32,13.00
2012,08,11,01,33,12.90
2012,08,11,01,34,12.90
2012,08,11,01,35,12.90
2012,08,11,01,36,12.90
2012,08,11,01,37,12.90
2012,08,11,01,38,12.90
2012,08,11,01,39,12.90
2012,08,11,01,40,12.90
2012,08,11,01,41,12.90
2012,08,11,01,42,12.90
2012,08,11,01,43,12.90
2012,08,11,01,44,12.80
2012,08,11,01,45,12.80
2012,08,11,01,46,12.80
2012,08,11,01,47,12.80
2012,08,11,01,48,12.80
2012,08,11,01,49,12.80
2012,08,11,01,50,12.70
2012,08,11,01,51,12.70
2012,08,11,01,52,12.70
2012,08,11,01,53,12.70
2012,08,11,01,54,12.70
2012,08,11,01,55,12.70
2012,08,11,01,56,12.70
2012,08,11,01,57,12.70
2012,08,11,01,58,12.70
2012,08,11,01,59,12.60
2012,08,11,02,00,12.60
2012,08,11,02,01,12.60
2012,08,11,02,02,12.60
2012,08,11,02,03,12.60
2012,08,11,02,04,12.60
2012,08,11,02,05,12.50
2012,08,11,02,06,12.50
2012,08,11,02,07,12.40
2012,08,11,02,08,12.40
2012,08,11,02,09,12.40
2012,08,11,02,10,12.40
2012,08,11,02,11,12.40
2012,08,11,02,12,12.30
2012,08,11,02,13,12.30
2012,08,11,02,14,12.30
2012,08,11,02,15,12.30
2012,08,11,02,16,12.30
2012,08,11,02,17,12.30
2012,08,11,02,18,12.20
2012,08,11,02,19,12.20
2012,08,11,02,20,12.20
2012,08,11,02,21,12.20
2012,08,11,02,22,12.20
2012,08,11,02,23,12.20
2012,08,11,02,24,12.20
2012,08,11,02,25,12.20
2012,08,11,02,26,12.20
2012,08,11,02,27,12.20
2012,08,11,02,28,12.20
2012,08,11,02,29,12.20
2012,08,11,02,30,12.20
2012,08,11,02,31,12.20
2012,08,11,02,32,12.10
2012,08,11,02,33,12.10
2012,08,11,02,34,12.10
2012,08,11,02,35,12.10
2012,08,11,02,36,12.10
2012,08,11,02,37,12.10
2012,08,11,02,38,12.00
2012,08,11,02,39,12.00
2012,08,11,02,40,12.00
2012,08,11,02,41,12.00
2012,08,11,02,42,11.90
2012,08,11,02,43,12.00
2012,08,11,02,44,11.90
2012,08,11,02,45,11.90
2012,08,11,02,46,11.90
2012,08,11,02,47,11.90
2012,08,11,02,48,11.90
2012,08,11,02,49,11.90
2012,08,11,02,50,11.90
2012,08,11,02,51,11.90
2012,08,11,02,52,11.90
2012,08,11,02,53,11.80
2012,08,11,02,54,11.80
2012,08,11,02,55,11.80
2012,08,11,02,56,11.80
2012,08,11,02,57,11.80
2012,08,11,02,58,11.80
2012,08,11,02,59,11.80
2012,08,11,03,00,11.80
2012,08,11,03,01,11.80
2012,08,11,03,02,11.80
2012,08,11,03,03,11.80
2012,08,11,03,04,11.80
2012,08,11,03,05,11.70
2012,08,11,03,06,11.70
2012,08,11,03,07,11.70
2012,08,11,03,08,11.70
2012,08,11,03,09,11.70
2012,08,11,03,10,11.70
2012,08,11,03,11,11.70
2012,08,11,03,12,11.70
2012,08,11,03,13,11.60
2012,08,11,03,14,11.60
2012,08,11,03,15,11.60
2012,08,11,03,16,11.60
2012,08,11,03,17,11.60
2012,08,11,03,18,11.60
2012,08,11,03,19,11.60
2012,08,11,03,20,11.60
2012,08,11,03,21,11.50
2012,08,11,03,22,11.50
2012,08,11,03,23,11.50
2012,08,11,03,24,11.50
2012,08,11,03,25,11.40
2012,08,11,03,26,11.40
2012,08,11,03,27,11.40
2012,08,11,03,28,11.40
2012,08,11,03,29,11.40
2012,08,11,03,30,11.30
2012,08,11,03,31,11.30
2012,08,11,03,32,11.30
2012,08,11,03,33,11.30
2012,08,11,03,34,11.30
2012,08,11,03,35,11.30
2012,08,11,03,36,11.30
2012,08,11,03,37,11.30
2012,08,11,03,38,11.30
2012,08,11,03,39,11.30
2012,08,11,03,40,11.30
2012,08,11,03,41,11.30
2012,08,11,03,42,11.30
2012,08,11,03,43,11.30
2012,08,11,03,44,11.30
2012,08,11,03,45,11.30
2012,08,11,03,46,11.30
2012,08,11,03,47,11.30
2012,08,11,03,48,11.30
2012,08,11,03,49,11.20
2012,08,11,03,50,11.20
2012,08,11,03,51,11.20
2012,08,11,03,52,11.20
2012,08,11,03,53,11.20
2012,08,11,03,54,11.20
2012,08,11,03,55,11.10
2012,08,11,03,56,11.10
2012,08,11,03,57,11.10
2012,08,11,03,58,11.10
2012,08,11,03,59,11.10
2012,08,11,04,00,11.10
2012,08,11,04,01,11.10
2012,08,11,04,02,11.10
2012,08,11,04,03,11.10
2012,08,11,04,04,11.10
2012,08,11,04,05,11.10
2012,08,11,04,06,11.10
2012,08,11,04,07,11.10
2012,08,11,04,08,11.00
2012,08,11,04,09,11.00
2012,08,11,04,10,11.00
2012,08,11,04,11,10.90
2012,08,11,04,12,10.90
2012,08,11,04,13,10.90
2012,08,11,04,14,10.90
2012,08,11,04,15,10.90
2012,08,11,04,16,10.80
2012,08,11,04,17,10.80
2012,08,11,04,18,10.80
2012,08,11,04,19,10.80
2012,08,11,04,20,10.80
2012,08,11,04,21,10.80
2012,08,11,04,22,10.80
2012,08,11,04,23,10.70
2012,08,11,04,24,10.70
2012,08,11,04,25,10.70
2012,08,11,04,26,10.70
2012,08,11,04,27,10.70
2012,08,11,04,28,10.70
2012,08,11,04,29,10.70
2012,08,11,04,30,10.60
2012,08,11,04,31,10.60
2012,08,11,04,32,10.60
2012,08,11,04,33,10.60
2012,08,11,04,34,10.60
2012,08,11,04,35,10.50
2012,08,11,04,36,10.50
2012,08,11,04,37,10.40
2012,08,11,04,38,10.40
2012,08,11,04,39,10.40
2012,08,11,04,40,10.40
2012,08,11,04,41,10.40
2012,08,11,04,42,10.40
2012,08,11,04,43,10.40
2012,08,11,04,44,10.40
2012,08,11,04,45,10.30
2012,08,11,04,46,10.30
2012,08,11,04,47,10.30
2012,08,11,04,48,10.30
2012,08,11,04,49,10.30
2012,08,11,04,50,10.30
2012,08,11,04,51,10.30
2012,08,11,04,52,10.30
2012,08,11,04,53,10.30
2012,08,11,04,54,10.30
2012,08,11,04,55,10.30
2012,08,11,04,56,10.30
2012,08,11,04,57,10.30
2012,08,11,04,58,10.30
2012,08,11,04,59,10.30
2012,08,11,05,00,10.30
2012,08,11,05,01,10.30
2012,08,11,05,02,10.30
2012,08,11,05,03,10.30
2012,08,11,05,04,10.30
2012,08,11,05,05,10.30
2012,08,11,05,06,10.30
2012,08,11,05,07,10.30
2012,08,11,05,08,10.30
2012,08,11,05,09,10.30
2012,08,11,05,10,10.30
2012,08,11,05,11,10.30
2012,08,11,05,12,10.20
2012,08,11,05,13,10.20
2012,08,11,05,14,10.20
2012,08,11,05,15,10.20
2012,08,11,05,16,10.20
2012,08,11,05,17,10.20
2012,08,11,05,18,10.20
2012,08,11,05,19,10.20
2012,08,11,05,20,10.20
2012,08,11,05,21,10.10
2012,08,11,05,22,10.10
2012,08,11,05,23,10.10
2012,08,11,05,24,10.10
2012,08,11,05,25,10.10
2012,08,11,05,26,10.10
2012,08,11,05,27,10.10
2012,08,11,05,28,10.10
2012,08,11,05,29,10.00
2012,08,11,05,30,10.00
2012,08,11,05,31,10.00
2012,08,11,05,32,10.00
2012,08,11,05,33,9.90
2012,08,11,05,34,9.90
2012,08,11,05,35,9.90
2012,08,11,05,36,9.90
2012,08,11,05,37,9.90
2012,08,11,05,38,9.90
2012,08,11,05,39,9.90
2012,08,11,05,40,9.90
2012,08,11,05,41,9.90
2012,08,11,05,42,9.90
2012,08,11,05,43,9.90
2012,08,11,05,44,9.90
2012,08,11,05,45,9.80
2012,08,11,05,46,9.80
2012,08,11,05,47,9.80
2012,08,11,05,48,9.80
2012,08,11,05,49,9.80
2012,08,11,05,50,9.80
2012,08,11,05,51,9.80
2012,08,11,05,52,9.80
2012,08,11,05,53,9.80
2012,08,11,05,54,9.80
2012,08,11,05,55,9.80
2012,08,11,05,56,9.80
2012,08,11,05,57,9.80
2012,08,11,05,58,9.80
2012,08,11,05,59,9.80
2012,08,11,06,00,9.80
2012,08,11,06,01,9.80
2012,08,11,06,02,9.80
2012,08,11,06,03,9.80
2012,08,11,06,04,9.80
2012,08,11,06,05,9.80
2012,08,11,06,06,9.80
2012,08,11,06,07,9.80
2012,08,11,06,08,9.80
2012,08,11,06,09,9.80
2012,08,11,06,10,9.80
2012,08,11,06,11,9.80
2012,08,11,06,12,9.80
2012,08,11,06,13,9.70
2012,08,11,06,14,9.70
2012,08,11,06,15,9.70
2012,08,11,06,16,9.70
2012,08,11,06,17,9.70
2012,08,11,06,18,9.70
2012,08,11,06,19,9.70
2012,08,11,06,20,9.70
2012,08,11,06,21,9.80
2012,08,11,06,22,9.80
2012,08,11,06,23,9.70
2012,08,11,06,24,9.70
2012,08,11,06,25,9.70
2012,08,11,06,26,9.70
2012,08,11,06,27,9.70
2012,08,11,06,28,9.70
2012,08,11,06,29,9.70
2012,08,11,06,30,9.70
2012,08,11,06,31,9.70
2012,08,11,06,32,9.70
2012,08,11,06,33,9.70
2012,08,11,06,34,9.80
2012,08,11,06,35,9.80
2012,08,11,06,36,9.80
2012,08,11,06,37,9.80
2012,08,11,06,38,9.80
2012,08,11,06,39,9.80
2012,08,11,06,40,9.80
2012,08,11,06,41,9.80
2012,08,11,06,42,9.80
2012,08,11,06,43,9.90
2012,08,11,06,44,9.90
2012,08,11,06,45,9.90
2012,08,11,06,46,9.90
2012,08,11,06,47,9.90
2012,08,11,06,48,9.90
2012,08,11,06,49,9.90
2012,08,11,06,50,9.90
2012,08,11,06,51,9.90
2012,08,11,06,52,9.90
2012,08,11,06,53,9.90
2012,08,11,06,54,9.90
2012,08,11,06,55,9.90
2012,08,11,06,56,9.90
2012,08,11,06,57,9.90
2012,08,11,06,58,9.90
2012,08,11,06,59,9.90
2012,08,11,07,00,10.00
2012,08,11,07,01,10.00
2012,08,11,07,02,10.10
2012,08,11,07,03,10.10
2012,08,11,07,04,10.10
2012,08,11,07,05,10.20
2012,08,11,07,06,10.30
2012,08,11,07,07,10.30
2012,08,11,07,08,10.40
2012,08,11,07,09,10.50
2012,08,11,07,10,10.60
2012,08,11,07,11,10.70
2012,08,11,07,12,10.80
2012,08,11,07,13,10.80
2012,08,11,07,14,10.90
2012,08,11,07,15,11.00
2012,08,11,07,16,11.00
2012,08,11,07,17,11.10
2012,08,11,07,18,11.20
2012,08,11,07,19,11.30
2012,08,11,07,20,11.40
2012,08,11,07,21,11.50
2012,08,11,07,22,11.60
2012,08,11,07,23,11.70
2012,08,11,07,24,11.80
2012,08,11,07,25,11.90
2012,08,11,07,26,12.00
2012,08,11,07,27,12.10
2012,08,11,07,28,12.20
2012,08,11,07,29,12.30
2012,08,11,07,30,12.40
2012,08,11,07,31,12.50
2012,08,11,07,32,12.60
2012,08,11,07,33,12.70
2012,08,11,07,34,12.80
2012,08,11,07,35,12.80
2012,08,11,07,36,12.80
2012,08,11,07,37,12.90
2012,08,11,07,38,12.90
2012,08,11,07,39,12.90
2012,08,11,07,40,12.90
2012,08,11,07,41,13.00
2012,08,11,07,42,13.00
2012,08,11,07,43,13.10
2012,08,11,07,44,13.10
2012,08,11,07,45,13.20
2012,08,11,07,46,13.20
2012,08,11,07,47,13.20
2012,08,11,07,48,13.20
2012,08,11,07,49,13.10
2012,08,11,07,50,13.10
2012,08,11,07,51,13.10
2012,08,11,07,52,13.10
2012,08,11,07,53,13.10
2012,08,11,07,54,13.00
2012,08,11,07,55,13.00
2012,08,11,07,56,13.00
2012,08,11,07,57,12.90
2012,08,11,07,58,12.90
2012,08,11,07,59,12.90
2012,08,11,08,00,12.90
2012,08,11,08,01,12.90
2012,08,11,08,02,12.90
2012,08,11,08,03,13.00
2012,08,11,08,04,13.10
2012,08,11,08,05,13.10
2012,08,11,08,06,13.20
2012,08,11,08,07,13.30
2012,08,11,08,08,13.30
2012,08,11,08,09,13.40
2012,08,11,08,10,13.50
2012,08,11,08,11,13.60
2012,08,11,08,12,13.70
2012,08,11,08,13,13.80
2012,08,11,08,14,13.80
2012,08,11,08,15,13.80
2012,08,11,08,16,13.90
2012,08,11,08,17,13.90
2012,08,11,08,18,13.90
2012,08,11,08,19,13.90
2012,08,11,08,20,13.90
2012,08,11,08,21,14.00
2012,08,11,08,22,14.10
2012,08,11,08,23,14.10
2012,08,11,08,24,14.20
2012,08,11,08,25,14.20
2012,08,11,08,26,14.30
2012,08,11,08,27,14.40
2012,08,11,08,28,14.50
2012,08,11,08,29,14.60
2012,08,11,08,30,14.80
2012,08,11,08,31,14.90
2012,08,11,08,32,14.90
2012,08,11,08,33,15.00
2012,08,11,08,34,15.10
2012,08,11,08,35,15.20
2012,08,11,08,36,15.20
2012,08,11,08,37,15.30
2012,08,11,08,38,15.30
2012,08,11,08,39,15.40
2012,08,11,08,40,15.40
2012,08,11,08,41,15.50
2012,08,11,08,42,15.60
2012,08,11,08,43,15.60
2012,08,11,08,44,15.70
2012,08,11,08,45,15.80
2012,08,11,08,46,15.80
2012,08,11,08,47,15.90
2012,08,11,08,48,15.90
2012,08,11,08,49,15.90
2012,08,11,08,50,15.90
2012,08,11,08,51,15.90
2012,08,11,08,52,15.90
2012,08,11,08,53,15.90
2012,08,11,08,54,16.00
2012,08,11,08,55,16.00
2012,08,11,08,56,16.10
2012,08,11,08,57,16.20
2012,08,11,08,58,16.20
2012,08,11,08,59,16.30
2012,08,11,09,00,16.40
2012,08,11,09,01,16.40
2012,08,11,09,02,16.50
2012,08,11,09,03,16.50
2012,08,11,09,04,16.60
2012,08,11,09,05,16.60
2012,08,11,09,06,16.70
2012,08,11,09,07,16.70
2012,08,11,09,08,16.70
2012,08,11,09,09,16.80
2012,08,11,09,10,16.80
2012,08,11,09,11,16.80
2012,08,11,09,12,16.90
2012,08,11,09,13,16.90
2012,08,11,09,14,16.80
2012,08,11,09,15,16.80
2012,08,11,09,16,16.80
2012,08,11,09,17,16.90
2012,08,11,09,18,16.90
2012,08,11,09,19,16.90
2012,08,11,09,20,17.00
2012,08,11,09,21,17.10
2012,08,11,09,22,17.20
2012,08,11,09,23,17.20
2012,08,11,09,24,17.30
2012,08,11,09,25,17.40
2012,08,11,09,26,17.50
2012,08,11,09,27,17.50
2012,08,11,09,28,17.60
2012,08,11,09,29,17.70
2012,08,11,09,30,17.70
2012,08,11,09,31,17.80
2012,08,11,09,32,17.80
2012,08,11,09,33,17.90
2012,08,11,09,34,17.90
2012,08,11,09,35,18.00
2012,08,11,09,36,18.10
2012,08,11,09,37,18.20
2012,08,11,09,38,18.30
2012,08,11,09,39,18.30
2012,08,11,09,40,18.40
2012,08,11,09,41,18.40
2012,08,11,09,42,18.50
2012,08,11,09,43,18.50
2012,08,11,09,44,18.60
2012,08,11,09,45,18.60
2012,08,11,09,46,18.70
2012,08,11,09,47,18.70
2012,08,11,09,48,18.70
2012,08,11,09,49,18.70
2012,08,11,09,50,18.70
2012,08,11,09,51,18.70
2012,08,11,09,52,18.70
2012,08,11,09,53,18.70
2012,08,11,09,54,18.70
2012,08,11,09,55,18.80
2012,08,11,09,56,18.80
2012,08,11,09,57,18.80
2012,08,11,09,58,18.90
2012,08,11,09,59,18.90
2012,08,11,10,00,19.00
2012,08,11,10,01,19.00
2012,08,11,10,02,19.10
2012,08,11,10,03,19.10
2012,08,11,10,04,19.20
2012,08,11,10,05,19.20
2012,08,11,10,06,19.20
2012,08,11,10,07,19.30
2012,08,11,10,08,19.40
2012,08,11,10,09,19.40
2012,08,11,10,10,19.50
2012,08,11,10,11,19.50
2012,08,11,10,12,19.60
2012,08,11,10,13,19.60
2012,08,11,10,14,19.70
2012,08,11,10,15,19.70
2012,08,11,10,16,19.70
2012,08,11,10,17,19.80
2012,08,11,10,18,19.80
2012,08,11,10,19,19.80
2012,08,11,10,20,19.80
2012,08,11,10,21,19.90
2012,08,11,10,22,19.90
2012,08,11,10,23,20.00
2012,08,11,10,24,20.00
2012,08,11,10,25,20.10
2012,08,11,10,26,20.10
2012,08,11,10,27,20.20
2012,08,11,10,28,20.20
2012,08,11,10,29,20.20
2012,08,11,10,30,20.20
2012,08,11,10,31,20.10
2012,08,11,10,32,20.10
2012,08,11,10,33,20.00
2012,08,11,10,34,20.00
2012,08,11,10,35,20.00
2012,08,11,10,36,19.90
2012,08,11,10,37,19.90
2012,08,11,10,38,19.80
2012,08,11,10,39,19.80
2012,08,11,10,40,19.80
2012,08,11,10,41,19.80
2012,08,11,10,42,19.90
2012,08,11,10,43,19.90
2012,08,11,10,44,19.90
2012,08,11,10,45,19.90
2012,08,11,10,46,19.90
2012,08,11,10,47,19.90
2012,08,11,10,48,19.90
2012,08,11,10,49,19.90
2012,08,11,10,50,20.00
2012,08,11,10,51,20.00
2012,08,11,10,52,20.10
2012,08,11,10,53,20.10
2012,08,11,10,54,20.10
2012,08,11,10,55,20.20
2012,08,11,10,56,20.20
2012,08,11,10,57,20.20
2012,08,11,10,58,20.20
2012,08,11,10,59,20.20
2012,08,11,11,00,20.20
2012,08,11,11,01,20.20
2012,08,11,11,02,20.20
2012,08,11,11,03,20.30
2012,08,11,11,04,20.30
2012,08,11,11,05,20.40
2012,08,11,11,06,20.40
2012,08,11,11,07,20.40
2012,08,11,11,08,20.40
2012,08,11,11,09,20.40
2012,08,11,11,10,20.40
2012,08,11,11,11,20.40
2012,08,11,11,12,20.40
2012,08,11,11,13,20.30
2012,08,11,11,14,20.30
2012,08,11,11,15,20.30
2012,08,11,11,16,20.30
2012,08,11,11,17,20.20
2012,08,11,11,18,20.20
2012,08,11,11,19,20.20
2012,08,11,11,20,20.20
2012,08,11,11,21,20.30
2012,08,11,11,22,20.30
2012,08,11,11,23,20.30
2012,08,11,11,24,20.40
2012,08,11,11,25,20.40
2012,08,11,11,26,20.40
2012,08,11,11,27,20.40
2012,08,11,11,28,20.40
2012,08,11,11,29,20.40
2012,08,11,11,30,20.40
2012,08,11,11,31,20.40
2012,08,11,11,32,20.40
2012,08,11,11,33,20.40
2012,08,11,11,34,20.30
2012,08,11,11,35,20.20
2012,08,11,11,36,20.10
2012,08,11,11,37,20.00
2012,08,11,11,38,19.90
2012,08,11,11,39,19.90
2012,08,11,11,40,19.90
2012,08,11,11,41,19.90
2012,08,11,11,42,19.90
2012,08,11,11,43,20.00
2012,08,11,11,44,20.00
2012,08,11,11,45,20.10
2012,08,11,11,46,20.20
2012,08,11,11,47,20.20
2012,08,11,11,48,20.20
2012,08,11,11,49,20.20
2012,08,11,11,50,20.30
2012,08,11,11,51,20.30
2012,08,11,11,52,20.30
2012,08,11,11,53,20.30
2012,08,11,11,54,20.30
2012,08,11,11,55,20.30
2012,08,11,11,56,20.20
2012,08,11,11,57,20.10
2012,08,11,11,58,20.10
2012,08,11,11,59,20.00
2012,08,11,12,00,20.00
2012,08,11,12,01,19.90
2012,08,11,12,02,19.90
2012,08,11,12,03,19.80
2012,08,11,12,04,19.80
2012,08,11,12,05,19.80
2012,08,11,12,06,19.80
2012,08,11,12,07,19.80
2012,08,11,12,08,19.80
2012,08,11,12,09,19.80
2012,08,11,12,10,19.80
2012,08,11,12,11,19.80
2012,08,11,12,12,19.80
2012,08,11,12,13,19.80
2012,08,11,12,14,19.80
2012,08,11,12,15,19.70
2012,08,11,12,16,19.70
2012,08,11,12,17,19.70
2012,08,11,12,18,19.60
2012,08,11,12,19,19.50
2012,08,11,12,20,19.40
2012,08,11,12,21,19.40
2012,08,11,12,22,19.30
2012,08,11,12,23,19.30
2012,08,11,12,24,19.30
2012,08,11,12,25,19.30
2012,08,11,12,26,19.30
2012,08,11,12,27,19.30
2012,08,11,12,28,19.30
2012,08,11,12,29,19.30
2012,08,11,12,30,19.40
2012,08,11,12,31,19.50
2012,08,11,12,32,19.60
2012,08,11,12,33,19.70
2012,08,11,12,34,19.80
2012,08,11,12,35,19.90
2012,08,11,12,36,20.00
2012,08,11,12,37,20.10
2012,08,11,12,38,20.20
2012,08,11,12,39,20.20
2012,08,11,12,40,20.30
2012,08,11,12,41,20.40
2012,08,11,12,42,20.40
2012,08,11,12,43,20.50
2012,08,11,12,44,20.50
2012,08,11,12,45,20.60
2012,08,11,12,46,20.60
2012,08,11,12,47,20.60
2012,08,11,12,48,20.60
2012,08,11,12,49,20.60
2012,08,11,12,50,20.70
2012,08,11,12,51,20.70
2012,08,11,12,52,20.70
2012,08,11,12,53,20.70
2012,08,11,12,54,20.70
2012,08,11,12,55,20.80
2012,08,11,12,56,20.80
2012,08,11,12,57,20.90
2012,08,11,12,58,20.90
2012,08,11,12,59,21.00
2012,08,11,13,00,21.10
2012,08,11,13,01,21.10
2012,08,11,13,02,21.20
2012,08,11,13,03,21.30
2012,08,11,13,04,21.30
2012,08,11,13,05,21.30
2012,08,11,13,06,21.30
2012,08,11,13,07,21.40
2012,08,11,13,08,21.40
2012,08,11,13,09,21.30
2012,08,11,13,10,21.20
2012,08,11,13,11,21.20
2012,08,11,13,12,21.20
2012,08,11,13,13,21.20
2012,08,11,13,14,21.30
2012,08,11,13,15,21.30
2012,08,11,13,16,21.40
2012,08,11,13,17,21.30
2012,08,11,13,18,21.30
2012,08,11,13,19,21.30
2012,08,11,13,20,21.20
2012,08,11,13,21,21.10
2012,08,11,13,22,21.10
2012,08,11,13,23,21.10
2012,08,11,13,24,21.10
2012,08,11,13,25,21.10
2012,08,11,13,26,21.00
2012,08,11,13,27,20.90
2012,08,11,13,28,20.80
2012,08,11,13,29,20.70
2012,08,11,13,30,20.60
2012,08,11,13,31,20.60
2012,08,11,13,32,20.50
2012,08,11,13,33,20.60
2012,08,11,13,34,20.60
2012,08,11,13,35,20.70
2012,08,11,13,36,20.70
2012,08,11,13,37,20.70
2012,08,11,13,38,20.60
2012,08,11,13,39,20.60
2012,08,11,13,40,20.60
2012,08,11,13,41,20.60
2012,08,11,13,42,20.70
2012,08,11,13,43,20.80
2012,08,11,13,44,20.90
2012,08,11,13,45,21.00
2012,08,11,13,46,21.20
2012,08,11,13,47,21.30
2012,08,11,13,48,21.40
2012,08,11,13,49,21.50
2012,08,11,13,50,21.60
2012,08,11,13,51,21.70
2012,08,11,13,52,21.70
2012,08,11,13,53,21.80
2012,08,11,13,54,21.90
2012,08,11,13,55,22.10
2012,08,11,13,56,22.20
2012,08,11,13,57,22.40
2012,08,11,13,58,22.50
2012,08,11,13,59,22.70
2012,08,11,14,00,22.80
2012,08,11,14,01,22.80
2012,08,11,14,02,22.80
2012,08,11,14,03,22.80
2012,08,11,14,04,22.80
2012,08,11,14,05,22.80
2012,08,11,14,06,22.80
2012,08,11,14,07,22.70
2012,08,11,14,08,22.70
2012,08,11,14,09,22.60
2012,08,11,14,10,22.50
2012,08,11,14,11,22.40
2012,08,11,14,12,22.40
2012,08,11,14,13,22.30
2012,08,11,14,14,22.30
2012,08,11,14,15,22.30
2012,08,11,14,16,22.40
2012,08,11,14,17,22.40
2012,08,11,14,18,22.40
2012,08,11,14,19,22.30
2012,08,11,14,20,22.30
2012,08,11,14,21,22.30
2012,08,11,14,22,22.30
2012,08,11,14,23,22.30
2012,08,11,14,24,22.30
2012,08,11,14,25,22.20
2012,08,11,14,26,22.20
2012,08,11,14,27,22.30
2012,08,11,14,28,22.30
2012,08,11,14,29,22.40
2012,08,11,14,30,22.50
2012,08,11,14,31,22.60
2012,08,11,14,32,22.60
2012,08,11,14,33,22.70
2012,08,11,14,34,22.70
2012,08,11,14,35,22.80
2012,08,11,14,36,22.90
2012,08,11,14,37,23.00
2012,08,11,14,38,23.10
2012,08,11,14,39,23.20
2012,08,11,14,40,23.20
2012,08,11,14,41,23.10
2012,08,11,14,42,23.10
2012,08,11,14,43,23.00
2012,08,11,14,44,23.00
2012,08,11,14,45,23.00
2012,08,11,14,46,23.00
2012,08,11,14,47,23.00
2012,08,11,14,48,22.90
2012,08,11,14,49,22.90
2012,08,11,14,50,22.90
2012,08,11,14,51,23.00
2012,08,11,14,52,23.00
2012,08,11,14,53,23.10
2012,08,11,14,54,23.10
2012,08,11,14,55,23.00
2012,08,11,14,56,22.90
2012,08,11,14,57,22.90
2012,08,11,14,58,22.90
2012,08,11,14,59,22.90
2012,08,11,15,00,23.00
2012,08,11,15,01,23.00
2012,08,11,15,02,23.10
2012,08,11,15,03,23.10
2012,08,11,15,04,23.20
2012,08,11,15,05,23.30
2012,08,11,15,06,23.40
2012,08,11,15,07,23.40
2012,08,11,15,08,23.50
2012,08,11,15,09,23.50
2012,08,11,15,10,23.60
2012,08,11,15,11,23.70
2012,08,11,15,12,23.70
2012,08,11,15,13,23.80
2012,08,11,15,14,23.80
2012,08,11,15,15,23.80
2012,08,11,15,16,23.80
2012,08,11,15,17,23.90
2012,08,11,15,18,23.90
2012,08,11,15,19,24.00
2012,08,11,15,20,24.00
2012,08,11,15,21,24.00
2012,08,11,15,22,24.00
2012,08,11,15,23,23.90
2012,08,11,15,24,23.90
2012,08,11,15,25,23.90
2012,08,11,15,26,23.90
2012,08,11,15,27,23.90
2012,08,11,15,28,23.90
2012,08,11,15,29,23.90
2012,08,11,15,30,23.90
2012,08,11,15,31,23.90
2012,08,11,15,32,23.90
2012,08,11,15,33,23.90
2012,08,11,15,34,23.80
2012,08,11,15,35,23.80
2012,08,11,15,36,23.80
2012,08,11,15,37,23.80
2012,08,11,15,38,23.80
2012,08,11,15,39,23.80
2012,08,11,15,40,23.80
2012,08,11,15,41,23.90
2012,08,11,15,42,23.90
2012,08,11,15,43,24.00
2012,08,11,15,44,24.00
2012,08,11,15,45,24.10
2012,08,11,15,46,24.10
2012,08,11,15,47,24.20
2012,08,11,15,48,24.10
2012,08,11,15,49,24.10
2012,08,11,15,50,24.00
2012,08,11,15,51,24.00
2012,08,11,15,52,23.90
2012,08,11,15,53,23.90
2012,08,11,15,54,23.90
2012,08,11,15,55,23.90
2012,08,11,15,56,23.90
2012,08,11,15,57,24.00
2012,08,11,15,58,24.10
2012,08,11,15,59,24.10
2012,08,11,16,00,24.20
2012,08,11,16,01,24.20
2012,08,11,16,02,24.20
2012,08,11,16,03,24.30
2012,08,11,16,04,24.30
2012,08,11,16,05,24.40
2012,08,11,16,06,24.40
2012,08,11,16,07,24.40
2012,08,11,16,08,24.40
2012,08,11,16,09,24.40
2012,08,11,16,10,24.40
2012,08,11,16,11,24.40
2012,08,11,16,12,24.30
2012,08,11,16,13,24.30
2012,08,11,16,14,24.30
2012,08,11,16,15,24.20
2012,08,11,16,16,24.20
2012,08,11,16,17,24.20
2012,08,11,16,18,24.30
2012,08,11,16,19,24.30
2012,08,11,16,20,24.40
2012,08,11,16,21,24.40
2012,08,11,16,22,24.50
2012,08,11,16,23,24.60
2012,08,11,16,24,24.70
2012,08,11,16,25,24.80
2012,08,11,16,26,24.90
2012,08,11,16,27,25.00
2012,08,11,16,28,25.10
2012,08,11,16,29,25.10
2012,08,11,16,30,25.20
2012,08,11,16,31,25.20
2012,08,11,16,32,25.30
2012,08,11,16,33,25.30
2012,08,11,16,34,25.30
2012,08,11,16,35,25.40
2012,08,11,16,36,25.40
2012,08,11,16,37,25.40
2012,08,11,16,38,25.40
2012,08,11,16,39,25.40
2012,08,11,16,40,25.40
2012,08,11,16,41,25.40
2012,08,11,16,42,25.30
2012,08,11,16,43,25.30
2012,08,11,16,44,25.30
2012,08,11,16,45,25.20
2012,08,11,16,46,25.20
2012,08,11,16,47,25.10
2012,08,11,16,48,25.10
2012,08,11,16,49,25.00
2012,08,11,16,50,25.00
2012,08,11,16,51,24.90
2012,08,11,16,52,24.90
2012,08,11,16,53,24.90
2012,08,11,16,54,24.80
2012,08,11,16,55,24.80
2012,08,11,16,56,24.80
2012,08,11,16,57,24.80
2012,08,11,16,58,24.80
2012,08,11,16,59,24.80
2012,08,11,17,00,24.80
2012,08,11,17,01,24.80
2012,08,11,17,02,24.80
2012,08,11,17,03,24.80
2012,08,11,17,04,24.80
2012,08,11,17,05,24.80
2012,08,11,17,06,24.80
2012,08,11,17,07,24.80
2012,08,11,17,08,24.80
2012,08,11,17,09,24.80
2012,08,11,17,10,24.80
2012,08,11,17,11,24.80
2012,08,11,17,12,24.80
2012,08,11,17,13,24.80
2012,08,11,17,14,24.80
2012,08,11,17,15,24.70
2012,08,11,17,16,24.70
2012,08,11,17,17,24.70
2012,08,11,17,18,24.60
2012,08,11,17,19,24.50
2012,08,11,17,20,24.50
2012,08,11,17,21,24.50
2012,08,11,17,22,24.40
2012,08,11,17,23,24.40